[[{"header":{"parameterUnit":"m.s-1","parameterCategory":1,"la1":30.2991,"la2":30.254,"lo1":-89.0895,"lo2":-89.0444,"dy":0.0017,"dx":0.0017,"nx":28,"ny":28,"refTime":"2023-11-04T03:00:00:Z","depth":0,"parameterNumber":2,"parameterNumberName":"U-component_of_WINDS"},"data":[0,0,0,0,0,0,0,0,0,0,0,0,0,0,0,0,0,0,0,0,0,0,0,0,0,0,0,0,0,0,0,0,0,0,0,0,0,0,0,0,0,0,0,0,0,0,0,0,0,0,0,0,0,0,0,0,0,0,-1.1747,-1.1748,0,-1.1827,-1.1828,-1.1829,-1.1807,-1.1805,-1.1804,-1.1802,-1.1883,-1.1887,-1.1891,0,0,0,0,0,0,0,0,0,0,0,0,0,-1.1574,-1.1577,-1.1747,-1.1748,-1.1749,-1.1827,-1.1828,-1.1829,-1.1807,-1.1805,-1.1803,-1.1801,-1.1882,-1.1886,-1.1891,0,0,0,0,0,0,0,0,0,0,0,0,0,-1.1651,-1.1578,-1.1747,-1.1748,-1.1748,-1.1827,-1.1828,-1.1829,-1.1808,-1.1805,-1.1803,-1.18,-1.1881,-1.1886,-1.1891,-1.1974,0,0,-1.1908,-1.1911,0,0,0,0,0,0,0,0,-1.1647,-1.1657,-1.1746,-1.1748,-1.1749,-1.1805,-1.1797,-1.1878,-1.1808,-1.1785,-1.1802,-1.1799,-1.1859,-1.1866,-1.1886,-1.1978,-1.1981,-1.1909,-1.1912,-1.1914,-1.1916,0,0,0,0,0,0,0,-1.1641,-1.1654,-1.1779,-1.1748,-1.1749,-1.1743,-1.1752,-1.1812,-1.1835,-1.1787,-1.1786,-1.1795,-1.1859,-1.1881,-1.1888,-1.1982,-1.1909,-1.1913,-1.1917,-1.1919,-1.2144,-1.2147,0,0,0,0,0,0,-1.1635,-1.165,-1.1776,-1.1781,-1.1691,-1.1748,-1.1758,-1.1789,-1.1834,-1.1838,-1.1797,-1.1794,-1.1873,-1.1882,-1.1891,-1.199,-1.1914,-1.192,-1.1923,-1.2142,-1.2145,-1.2148,0,0,0,0,0,0,-1.1632,-1.1647,-1.1773,-1.1715,-1.1731,-1.1754,-1.1789,-1.1792,-1.1814,-1.1842,-1.1846,-1.1816,-1.1871,-1.1883,-1.1953,-1.1993,-1.1922,-1.1927,-1.2139,-1.2143,-1.2146,-1.219,0,0,0,0,0,0,-1.1627,-1.1646,-1.1678,-1.1716,-1.1734,-1.1835,-1.1792,-1.1795,-1.1824,-1.182,-1.186,-1.1864,-1.187,-1.1945,-1.1959,-1.1999,-1.1931,-1.2135,-1.214,-1.2145,-1.2185,-1.2195,-1.2203,0,0,0,0,0,-1.1621,-1.1687,-1.1679,-1.1695,-1.1774,-1.1837,-1.1847,-1.1853,-1.1827,-1.1859,-1.1877,-1.1863,-1.1986,-1.1953,-1.1968,-1.201,-1.2133,-1.2139,-1.2145,-1.2181,-1.2193,-1.2203,0,0,0,0,0,0,-1.1653,-1.1692,-1.1684,-1.1765,-1.1798,-1.1833,-1.1874,-1.1866,-1.1907,-1.1902,-1.1906,-1.1916,-1.1988,-1.2006,-1.1968,-1.2092,-1.2055,-1.2065,-1.2078,-1.2089,-1.2098,-1.2093,-1.1936,0,0,0,0,0,-1.1669,-1.1717,-1.1748,-1.1816,-1.1833,-1.1851,-1.1878,-1.188,-1.1914,-1.1928,-1.1951,-1.1984,-1.203,-1.2061,-1.2105,-1.2187,-1.2195,-1.2224,-1.2233,-1.224,-1.2248,-1.2293,-1.2306,-1.2168,-1.2168,-1.2168,0,0,-1.1703,-1.173,-1.1761,-1.1823,-1.1849,-1.1898,-1.1863,-1.1916,-1.1953,-1.1936,-1.2004,-1.2021,-1.2059,-1.2136,-1.2171,-1.2153,-1.2288,-1.2248,-1.2253,-1.2258,-1.2301,-1.2314,-1.2325,-1.2172,-1.2171,-1.217,0,0,-1.1791,-1.1817,-1.1876,-1.1902,-1.1942,-1.1953,-1.1967,-1.2004,-1.2015,-1.2083,-1.2071,-1.2114,-1.2194,-1.2221,-1.2245,-1.2342,-1.2331,-1.2356,-1.2404,-1.2448,-1.2459,-1.2468,-1.2503,-1.2515,-1.2364,-1.2364,-1.2364,0,-1.1829,-1.1903,-1.1907,-1.1962,-1.199,-1.1976,-1.2036,-1.2062,-1.2113,-1.2133,-1.2112,-1.2211,-1.2235,-1.2318,-1.2342,-1.2362,-1.2378,-1.2352,-1.2457,-1.2467,-1.2476,-1.2509,-1.2522,-1.2367,-1.2367,-1.2366,-1.2366,0,-1.1947,-1.1999,-1.2042,-1.2092,-1.2125,-1.2182,-1.2194,-1.2226,-1.2224,-1.2237,-1.2306,-1.2335,-1.2384,-1.2404,-1.2403,-1.2486,-1.2474,-1.2455,-1.2419,-1.2492,-1.2523,-1.2536,-1.2371,-1.237,-1.2369,-1.2369,0,0,-1.2059,-1.211,-1.2126,-1.2149,-1.2191,-1.223,-1.2286,-1.2335,-1.2362,-1.2398,-1.2445,-1.2511,-1.2494,-1.2521,-1.2523,-1.2561,-1.2636,-1.2537,-1.2538,-1.2555,-1.273,-1.2744,-1.2759,-1.2628,-1.2631,-1.2633,-1.2727,0,-1.2151,-1.225,-1.2255,-1.2345,-1.2392,-1.238,-1.2428,-1.2459,-1.2472,-1.2514,-1.2528,-1.2576,-1.2549,-1.2565,-1.2602,-1.2619,-1.2671,-1.2612,-1.2672,-1.2674,-1.2664,-1.2775,-1.2791,-1.2878,-1.2739,-1.2741,-1.2742,0,-1.2272,-1.2312,-1.2406,-1.2441,-1.2461,-1.2505,-1.2549,-1.2589,-1.2623,-1.263,-1.266,-1.2656,-1.2713,-1.2673,-1.2751,-1.2711,-1.2735,-1.2747,-1.2751,-1.2757,-1.2713,-1.2785,-1.2906,-1.292,-1.2762,-1.276,-1.2759,0,-1.2345,-1.2421,-1.2488,-1.2507,-1.2549,-1.258,-1.2599,-1.2631,-1.2659,-1.2698,-1.2716,-1.2761,-1.2785,-1.2819,-1.2827,-1.2798,-1.2905,-1.2866,-1.2912,-1.2912,-1.2936,-1.2934,-1.3063,-1.295,-1.295,-1.295,-1.295,0,-1.2448,-1.2506,-1.2521,-1.2562,-1.2627,-1.2631,-1.2695,-1.2712,-1.274,-1.2783,-1.2774,-1.2815,-1.2822,-1.2865,-1.2871,-1.2934,-1.2945,-1.2952,-1.2953,-1.2954,-1.2953,-1.297,-1.2965,-1.2953,-1.2953,-1.2952,-1.2951,0,-1.254,-1.2553,-1.2624,-1.2658,-1.2667,-1.2714,-1.2742,-1.2781,-1.2793,-1.2848,-1.2861,-1.2879,-1.2929,-1.2939,-1.2998,-1.3001,-1.3077,-1.3072,-1.3066,-1.3066,-1.3111,-1.3107,-1.3256,-1.3276,-1.315,-1.3151,-1.3152,0,-1.2606,-1.265,-1.2688,-1.2717,-1.2737,-1.2784,-1.2813,-1.2818,-1.2848,-1.289,-1.2924,-1.2972,-1.3011,-1.309,-1.3108,-1.3153,-1.3149,-1.3198,-1.3155,-1.3154,-1.315,-1.3148,-1.3152,-1.3206,-1.3208,-1.3209,-1.321,0,-1.272,-1.2724,-1.2766,-1.2811,-1.2846,-1.2881,-1.2914,-1.2938,-1.2948,-1.2982,-1.3032,-1.3063,-1.3122,-1.317,-1.3214,-1.3232,-1.3223,-1.3223,-1.3236,-1.3237,-1.3232,-1.3236,-1.3089,-1.322,-1.3219,-1.3218,-1.3217,-1.3217,-1.2802,-1.2841,-1.2874,-1.2921,-1.2946,-1.2978,-1.3016,-1.3032,-1.3074,-1.3123,-1.3123,-1.3178,-1.321,-1.3268,-1.3289,-1.3332,-1.3317,-1.3335,-1.334,-1.3345,-1.3349,-1.3224,-1.334,-1.334,-1.3339,-1.3339,-1.3339,0,-1.2917,-1.2937,-1.298,-1.3027,-1.3064,-1.3051,-1.3087,-1.3119,-1.3167,-1.3198,-1.3236,-1.3294,-1.334,-1.3361,-1.3406,-1.3436,-1.3433,-1.3448,-1.3446,-1.345,-1.336,-1.3345,-1.345,-1.345,-1.345,-1.345,-1.345,-1.345,-1.2981,-1.3046,-1.3054,-1.3131,-1.315,-1.3204,-1.3226,-1.3254,-1.3279,-1.3343,-1.3381,-1.3395,-1.3422,-1.3469,-1.351,-1.3515,-1.3532,-1.3549,-1.3552,-1.3468,-1.3457,-1.3446,-1.3432,-1.3553,-1.3553,-1.3639,-1.364,-1.364]},{"header":{"parameterUnit":"m.s-1","parameterCategory":1,"la1":30.2991,"la2":30.254,"lo1":-89.0895,"lo2":-89.0444,"dy":0.0017,"dx":0.0017,"nx":28,"ny":28,"refTime":"2023-11-04T03:00:00:Z","depth":0,"parameterNumber":3,"parameterNumberName":"V-component_of_WINDS"},"data":[0,0,0,0,0,0,0,0,0,0,0,0,0,0,0,0,0,0,0,0,0,0,0,0,0,0,0,0,0,0,0,0,0,0,0,0,0,0,0,0,0,0,0,0,0,0,0,0,0,0,0,0,0,0,0,0,0,0,-2.918,-2.9181,0,-2.9265,-2.9266,-2.9267,-2.926,-2.9259,-2.9257,-2.9256,-2.9339,-2.9342,-2.9345,0,0,0,0,0,0,0,0,0,0,0,0,0,-2.901,-2.9013,-2.918,-2.9181,-2.9182,-2.9264,-2.9266,-2.9267,-2.926,-2.9259,-2.9257,-2.9256,-2.9338,-2.9341,-2.9346,0,0,0,0,0,0,0,0,0,0,0,0,0,-2.9088,-2.9014,-2.918,-2.9189,-2.9191,-2.9264,-2.9266,-2.9267,-2.926,-2.9259,-2.9257,-2.9255,-2.9336,-2.9341,-2.9346,-2.9415,0,0,-2.9362,-2.9364,0,0,0,0,0,0,0,0,-2.9083,-2.9094,-2.9187,-2.9188,-2.919,-2.925,-2.9236,-2.9317,-2.9261,-2.9234,-2.9256,-2.9254,-2.931,-2.9317,-2.9337,-2.9419,-2.9422,-2.9362,-2.9365,-2.9367,-2.9369,0,0,0,0,0,0,0,-2.9078,-2.909,-2.9213,-2.9188,-2.919,-2.9188,-2.9197,-2.9251,-2.9281,-2.9236,-2.9236,-2.9246,-2.9311,-2.9332,-2.9339,-2.9424,-2.9362,-2.9366,-2.9369,-2.9371,-2.9565,-2.9567,0,0,0,0,0,0,-2.9071,-2.9086,-2.9211,-2.9216,-2.9131,-2.9192,-2.9202,-2.9233,-2.9281,-2.9287,-2.9248,-2.9245,-2.9325,-2.9333,-2.9342,-2.9425,-2.9367,-2.9372,-2.9375,-2.9563,-2.9566,-2.9568,0,0,0,0,0,0,-2.9067,-2.9082,-2.9207,-2.9151,-2.9167,-2.9197,-2.9231,-2.9235,-2.9257,-2.929,-2.9295,-2.9264,-2.9324,-2.9335,-2.9397,-2.9428,-2.9374,-2.9379,-2.9561,-2.9564,-2.9567,-2.9593,0,0,0,0,0,0,-2.9062,-2.9081,-2.9108,-2.9152,-2.917,-2.9262,-2.9233,-2.9238,-2.9266,-2.9264,-2.9306,-2.9312,-2.9323,-2.939,-2.9402,-2.9434,-2.9383,-2.9558,-2.9562,-2.9566,-2.9589,-2.9596,-2.9603,0,0,0,0,0,-2.9056,-2.9111,-2.911,-2.9125,-2.9205,-2.9264,-2.9274,-2.9287,-2.9268,-2.9296,-2.9317,-2.931,-2.9423,-2.9396,-2.941,-2.9444,-2.9556,-2.9561,-2.9566,-2.9586,-2.9595,-2.9602,0,0,0,0,0,0,-2.9069,-2.9117,-2.9116,-2.9187,-2.9222,-2.9263,-2.9297,-2.9296,-2.9336,-2.9332,-2.9345,-2.9355,-2.9417,-2.9437,-2.9406,-2.9513,-2.9487,-2.9495,-2.9498,-2.9506,-2.9513,-2.9506,-2.9387,0,0,0,0,0,-2.9081,-2.9126,-2.9165,-2.9224,-2.9241,-2.9267,-2.9293,-2.93,-2.9336,-2.935,-2.9376,-2.941,-2.9453,-2.9481,-2.9522,-2.9592,-2.9601,-2.9623,-2.9629,-2.9635,-2.9641,-2.9678,-2.9688,-2.9584,-2.9584,-2.9584,0,0,-2.9104,-2.9136,-2.9163,-2.9227,-2.9255,-2.93,-2.9279,-2.9328,-2.9361,-2.9357,-2.9418,-2.9438,-2.9477,-2.9543,-2.9573,-2.9561,-2.9672,-2.9641,-2.9645,-2.9648,-2.9684,-2.9694,-2.9703,-2.9587,-2.9586,-2.9586,0,0,-2.917,-2.9199,-2.9251,-2.9279,-2.9322,-2.9339,-2.9351,-2.9393,-2.9407,-2.9468,-2.9466,-2.9505,-2.9579,-2.9607,-2.9631,-2.9708,-2.9703,-2.9721,-2.9755,-2.9792,-2.98,-2.9807,-2.9833,-2.9843,-2.9727,-2.9727,-2.9727,0,-2.9193,-2.9262,-2.9277,-2.9327,-2.9355,-2.9355,-2.9407,-2.9433,-2.9487,-2.9505,-2.9492,-2.9585,-2.9611,-2.9683,-2.9702,-2.9722,-2.9735,-2.9715,-2.9798,-2.9805,-2.9812,-2.9837,-2.9847,-2.9729,-2.9729,-2.9728,-2.9728,0,-2.9288,-2.9337,-2.9373,-2.9426,-2.9458,-2.9509,-2.953,-2.9561,-2.9565,-2.9583,-2.9645,-2.9676,-2.9724,-2.9742,-2.9746,-2.9815,-2.9806,-2.9795,-2.9769,-2.9824,-2.9847,-2.9857,-2.9731,-2.9731,-2.973,-2.973,0,0,-2.9363,-2.9425,-2.9438,-2.9462,-2.9509,-2.9546,-2.9597,-2.9645,-2.967,-2.9707,-2.9749,-2.9812,-2.9802,-2.9829,-2.9837,-2.9869,-2.9927,-2.9854,-2.9855,-2.9865,-3.0003,-3.001,-3.0021,-2.9924,-2.9926,-2.9928,-2.9999,0,-2.9432,-2.9523,-2.9538,-2.9616,-2.9661,-2.9662,-2.9705,-2.9739,-2.9757,-2.9796,-2.9815,-2.9859,-2.9843,-2.986,-2.9892,-2.9913,-2.9954,-2.9908,-2.9962,-2.9963,-2.9951,-3.0034,-3.0042,-3.0107,-3.0009,-3.001,-3.0012,0,-2.9525,-2.9566,-2.965,-2.9691,-2.9711,-2.975,-2.9795,-2.9833,-2.987,-2.9881,-2.9912,-2.9916,-2.9967,-2.9939,-3.0009,-2.9977,-3.0,-3.0014,-3.0017,-3.0021,-2.999,-3.0039,-3.0129,-3.0138,-3.0027,-3.0025,-3.0024,0,-2.957,-2.9646,-2.9706,-2.9726,-2.9777,-2.9804,-2.9826,-2.9862,-2.989,-2.9929,-2.9947,-2.9991,-3.0015,-3.0049,-3.0064,-3.0043,-3.0132,-3.0107,-3.0141,-3.0141,-3.0159,-3.0157,-3.0252,-3.0176,-3.0176,-3.0176,-3.0175,0,-2.9645,-2.9696,-2.9727,-2.9763,-2.9819,-2.9836,-2.9891,-2.9912,-2.9944,-2.9984,-2.9988,-3.0025,-3.0044,-3.0083,-3.0095,-3.015,-3.0161,-3.017,-3.0173,-3.0169,-3.0168,-3.0183,-3.0179,-3.0178,-3.0178,-3.0177,-3.0177,0,-2.9704,-2.9727,-2.9792,-2.9835,-2.9847,-2.9886,-2.9923,-2.9957,-2.9976,-3.0026,-3.0039,-3.0067,-3.0113,-3.0133,-3.0189,-3.0198,-3.0261,-3.026,-3.0248,-3.0249,-3.0282,-3.0278,-3.0389,-3.0404,-3.0319,-3.032,-3.032,0,-2.975,-2.9789,-2.9837,-2.9864,-2.9887,-2.9932,-2.9961,-2.9979,-3.0008,-3.0054,-3.0083,-3.013,-3.0169,-3.0243,-3.0268,-3.0311,-3.0311,-3.0347,-3.0317,-3.0312,-3.031,-3.0307,-3.031,-3.0351,-3.0352,-3.0353,-3.0353,0,-2.9828,-2.9838,-2.988,-2.9926,-2.9961,-2.9998,-3.0034,-3.0056,-3.0079,-3.0112,-3.0161,-3.0191,-3.0249,-3.0296,-3.0341,-3.0362,-3.0361,-3.0363,-3.0373,-3.0369,-3.036,-3.0364,-3.0262,-3.036,-3.0359,-3.0359,-3.0358,-3.0358,-2.9881,-2.9916,-2.9955,-3.0001,-3.0031,-3.0065,-3.0099,-3.0123,-3.0164,-3.0214,-3.0222,-3.0273,-3.031,-3.037,-3.0394,-3.0433,-3.0424,-3.0439,-3.0442,-3.0445,-3.0447,-3.0355,-3.0442,-3.0441,-3.0441,-3.0441,-3.0441,0,-2.9958,-2.9984,-3.0027,-3.0078,-3.0114,-3.0113,-3.0153,-3.0183,-3.0229,-3.0263,-3.0301,-3.0357,-3.0402,-3.0431,-3.0476,-3.0502,-3.0502,-3.0513,-3.051,-3.0515,-3.0453,-3.0439,-3.0511,-3.0511,-3.0511,-3.0511,-3.0511,-3.0511,-3.0003,-3.0061,-3.0076,-3.0148,-3.0173,-3.0225,-3.0247,-3.0278,-3.0306,-3.0368,-3.0406,-3.0425,-3.0457,-3.0505,-3.0545,-3.0553,-3.0568,-3.0579,-3.0585,-3.0527,-3.0519,-3.0512,-3.0499,-3.0583,-3.0583,-3.0644,-3.0644,-3.0645]}]]